This is the latest recevied weather packets stored in our database for station/object N3SBK. If no packets are shown the sender has not sent any weather packets the latest 10 day(s).
| Time | Temp. | Humidity | Pressure | Rain* | Wind** | Luminosity | Snow |
|---|---|---|---|---|---|---|---|
| 1787833800 | 17.78° C | 96% | 1007.7 hPa | 0 mm | - | 24 W/m² | - |
| 1787833495 | 17.78° C | 96% | 1007.8 hPa | 0 mm | - | 23 W/m² | - |
| 1787833191 | 17.22° C | 97% | 1007.8 hPa | 0 mm | - | 24 W/m² | - |
| 1787832887 | 17.22° C | 97% | 1007.5 hPa | 0 mm | - | 24 W/m² | - |
| 1787832583 | 16.67° C | 97% | 1007.7 hPa | 0 mm | - | 24 W/m² | - |
| 1787832281 | 16.67° C | 97% | 1007.7 hPa | 0 mm | - | 22 W/m² | - |
| 1787831979 | 16.67° C | 97% | 1007.7 hPa | 0 mm | - | 24 W/m² | - |
| 1787831674 | 16.67° C | 97% | 1007.7 hPa | 0 mm | - | 27 W/m² | - |
| 1787831373 | 16.11° C | 97% | 1007.4 hPa | 0 mm | - | 25 W/m² | - |
| 1787831071 | 16.11° C | 97% | 1007.7 hPa | 0 mm | - | 19 W/m² | - |
| 1787830769 | 16.11° C | 97% | 1007.8 hPa | 0 mm | - | 13 W/m² | - |
| 1787830468 | 16.11° C | 97% | 1007.8 hPa | 0 mm | - | 10 W/m² | - |
| 1787830168 | 16.11° C | 97% | 1007.8 hPa | 0 mm | - | 8 W/m² | - |
| 1787829862 | 16.11° C | 97% | 1007.7 hPa | 0 mm | - | 8 W/m² | - |
| 1787829561 | 16.11° C | 97% | 1007.5 hPa | 0 mm | - | 9 W/m² | - |
| 1787829258 | 16.11° C | 97% | 1007.3 hPa | 0 mm | - | 8 W/m² | - |
| 1787828953 | 16.11° C | 97% | 1007.4 hPa | 0 mm | - | 10 W/m² | - |
| 1787828650 | 16.11° C | 97% | 1007.5 hPa | 0 mm | - | 12 W/m² | - |
| 1787828344 | 16.11° C | 97% | 1007.3 hPa | 0 mm | - | 7 W/m² | - |
| 1787828043 | 15.56° C | 97% | 1007.1 hPa | 0 mm | - | 4 W/m² | - |
| 1787827738 | 15.56° C | 97% | 1007 hPa | 0 mm | - | 2 W/m² | - |
| 1787827433 | 15.56° C | 97% | 1007 hPa | 0 mm | - | 2 W/m² | - |
| 1787827133 | 15.56° C | 97% | 1006.8 hPa | 0 mm | - | 1 W/m² | - |
| 1787826832 | 16.11° C | 97% | 1006.7 hPa | 0 mm | - | 1 W/m² | - |
| 1787826527 | 16.11° C | 97% | 1006.7 hPa | 0 mm | - | 0 W/m² | - |
* Rain latest hour (hover to see other rain measurements)
** Current wind speed in m/s (hover to see current wind gust speed)